Hourly Data Report for December 13, 2020

SHEARWATER RCS
NOVA SCOTIA
Current Station Operator: ECCC - MSC

44°37'47.000" N
63°30'48.000" W
24.00 m
8205092
71264
AAW

Download Data

Hourly Data (December 2020)
Hourly Data Report for December 13, 2020
TIME
LST
Temp Definition
°C
Dew Point Definition
°C
Rel Hum Definition
%
Precip. Amount Definition
mm

Wind Dir Definition
10's deg

Wind Spd Definition
km/h
Visibility Definition
km
Stn Press Definition
kPa
Hmdx Definition


Wind Chill Definition


Weather Definition


00:00 1.8 0.9 94 1.0 6 13   102.18     LegendNANA
01:00 3.5 3.0 96 0.5 9 14   101.98     LegendNANA
02:00 4.2 3.3 94 0.8 8 19   101.83     LegendNANA
03:00 5.2 4.4 95 3.3 10 20   101.73     LegendNANA
04:00 5.5 4.7 95 3.9 10 25   101.52     LegendNANA
05:00 5.9 5.3 96 3.7 10 21   101.38     LegendNANA
06:00 6.2 5.6 96 1.6 8 24   101.28     LegendNANA
07:00 6.6 6.1 97 0.5 7 21   101.18     LegendNANA
08:00 7.0 6.6 97 0.2 6 19   101.11     LegendNANA
09:00 7.5 7.1 97 0.0 6 14   101.04     LegendNANA
10:00 7.9 7.5 98 0.0 8 11   101.04     LegendNANA
11:00 8.4 8.2 98 0.0 10 5   100.99     LegendNANA
12:00 9.6 9.4 98 0.0 18 3   100.89     LegendNANA
13:00 9.8 9.5 98 0.0 16 7   100.86     LegendNANA
14:00 10.1 9.8 98 0.3 15 6   100.80     LegendNANA
15:00 10.1 9.8 98 0.0 16 7   100.78     LegendNANA
16:00 9.7 9.5 98 0.0 15 7   100.75     LegendNANA
17:00 9.3 9.0 98 0.0 15 1   100.74     LegendNANA
18:00 9.0 8.8 99 0.0 13 3   100.76     LegendNANA
19:00 8.8 8.6 99 0.0 17 7   100.72     LegendNANA
20:00 8.9 8.7 99 0.0 18 10   100.68     LegendNANA
21:00 9.2 9.0 99 0.0 20 8   100.69     LegendNANA
22:00 9.4 9.2 99 0.0 22 6   100.71     LegendNANA
23:00 9.2 8.9 98 0.0 24 10   100.65     LegendNANA

Notes on Data Quality.

Legend

  • E = Estimated
  • M = Missing
  • NA = Not Available*
  • [empty] = Indicates an unobserved value
Date modified: